Regional Weather Roundup
Issued by NWS Binghamton, NY

Home | Current Version | Previous Version | Text Only | Print | Product List | Glossary On
Versions: 1 2 3 4 5 6 7 8 9 10 11 12 13 14 15 16 17 18 19 20 21 22 23 24 25 26 27
000
ASUS41 KBGM 191410
RWRBGM

REGIONAL WEATHER ROUNDUP
NATIONAL WEATHER SERVICE BINGHAMTON NY
900 AM EST THU JAN 19 2017

Note: "fair" indicates few or no clouds below 12,000 feet with no
significant weather and/or obstructions to visibility.

* = Station(s) that does not report precipitation, such as rain,
snow, etc, also no thunder or fog.

NYZ009-015>018-022>025-036-037-044>046-055>057-062-191500
...Central New York...

CITY           SKY/WX    TMP DP  RH WIND       PRES   REMARKS
Binghamton     NOT AVBL
Cortland       CLOUDY    36  34  93 CALM      30.05R
Dansville      CLOUDY    38  32  79 NW5       30.07R WCI  34
Elmira         NOT AVBL
Ithaca         NOT AVBL
Monticello     NOT AVBL
Penn Yan       CLOUDY    37  30  75 NW3       30.07R
Rome           MIX PCPN  36  36 100 W9        30.07R FOG     WCI  29
Syracuse       DRIZZLE   36  34  92 W12       30.07R WCI  28
$$

PAZ038>040-043-044-047-048-072-191500
...Northeast Pennsylvania...

CITY           SKY/WX    TMP DP  RH WIND       PRES   REMARKS
Hazleton       CLOUDY    36  36 100 NW7       30.05S WCI  30
Scranton       NOT AVBL
$$
&&
KEY
WCI = Wind Chill Index
VSB = Visibility
HX  = Heat Index
$$




USA.gov is the U.S. government's official web portal to all federal, state and local government web resources and services.